FW5774 Weather Reports


time (UTC)temp
C
wind
direction
speed
KPH
gust
KPH
rain 1hr
cm
rain 24hr
cm
rain mn
cm
humidity
%
barometer
mb
20220930151024 11 0 0.0 0.0 0.00 0.23 0.23 95 1012.5
20220930150504 11 0 0.0 0.0 0.00 0.23 0.23 95 1012.3
20220930150004 11 0 0.0 0.0 0.00 0.23 0.23 95 1012.2
20220930145504 11 0 0.0 0.0 0.00 0.23 0.23 95 1012.2
20220930145004 11 307 0.0 1.6 0.00 0.23 0.23 95 1012.1
20220930144505 11 359 1.6 4.8 0.00 0.23 0.23 95 1012.1
20220930144005 11 13 1.6 4.8 0.00 0.23 0.23 95 1012.1
20220930143527 11 49 1.6 6.4 0.00 0.23 0.23 95 1012.0
20220930143005 11 65 3.2 6.4 0.00 0.23 0.23 95 1011.9
20220930142505 11 66 3.2 6.4 0.00 0.23 0.23 95 1011.9
20220930142005 11 69 1.6 6.4 0.00 0.23 0.23 95 1012.0
20220930141526 11 74 3.2 6.4 0.00 0.23 0.23 95 1011.9
20220930141047 11 61 3.2 8.0 0.00 0.23 0.23 95 1012.0
20220930140525 11 41 1.6 8.0 0.00 0.23 0.23 95 1012.0
20220930140005 11 51 1.6 4.8 0.00 0.23 0.23 95 1012.0
20220930135505 11 85 0.0 3.2 0.00 0.23 0.23 95 1012.1
20220930134505 11 80 0.0 3.2 0.00 0.23 0.23 95 1012.1
20220930134005 11 77 1.6 4.8 0.00 0.23 0.23 95 1011.9
20220930133505 11 76 1.6 6.4 0.00 0.23 0.23 95 1012.0
20220930133005 11 65 3.2 6.4 0.00 0.23 0.23 95 1011.9
20220930132505 11 27 1.6 4.8 0.00 0.23 0.23 95 1011.9
20220930132005 11 340 0.0 1.6 0.00 0.23 0.23 95 1011.9
20220930131526 11 337 0.0 3.2 0.00 0.23 0.23 95 1011.9
20220930131005 11 331 0.0 3.2 0.00 0.23 0.23 95 1011.9
20220930130526 11 325 0.0 4.8 0.00 0.23 0.23 95 1011.8
20220930130026 11 329 0.0 4.8 0.00 0.23 0.23 95 1011.8
20220930125526 11 58 0.0 1.6 0.00 0.23 0.23 95 1011.7
20220930125005 11 70 1.6 3.2 0.03 0.23 0.23 95 1011.6
20220930124505 11 64 1.6 4.8 0.03 0.23 0.23 95 1011.6
20220930124005 11 54 1.6 4.8 0.03 0.23 0.23 95 1011.5
20220930123505 11 47 3.2 4.8 0.03 0.23 0.23 95 1011.5
20220930123026 11 34 1.6 4.8 0.03 0.23 0.23 96 1011.3
20220930122505 11 29 1.6 4.8 0.03 0.23 0.23 96 1011.3
20220930122005 11 45 1.6 4.8 0.03 0.23 0.23 96 1011.5
20220930121505 11 299 0.0 1.6 0.03 0.23 0.23 96 1011.4
20220930121026 11 0 0.0 0.0 0.03 0.23 0.23 95 1011.4
20220930120505 11 39 0.0 3.2 0.03 0.23 0.23 96 1011.4
20220930120005 11 33 1.6 4.8 0.05 0.23 0.23 95 1011.3
20220930115526 11 40 1.6 4.8 0.05 0.23 0.23 95 1011.4
20220930115005 11 59 1.6 4.8 0.03 0.20 0.20 95 1011.3
20220930114526 11 69 1.6 6.4 0.03 0.20 0.20 95 1011.4
20220930114005 11 66 1.6 6.4 0.03 0.20 0.20 95 1011.2
20220930113504 11 66 1.6 6.4 0.03 0.20 0.20 95 1011.2
20220930113026 11 74 3.2 6.4 0.03 0.20 0.20 95 1011.2
20220930112504 11 82 3.2 6.4 0.03 0.20 0.20 95 1011.2
20220930112005 11 81 4.8 6.4 0.03 0.20 0.20 95 1011.1
20220930111505 11 77 4.8 6.4 0.03 0.20 0.20 95 1011.1
20220930111046 11 75 3.2 6.4 0.03 0.20 0.20 95 1011.0
20220930110505 11 64 3.2 6.4 0.03 0.20 0.20 95 1011.1
20220930110005 11 72 3.2 6.4 0.00 0.18 0.18 95 1011.1
20220930105504 11 80 3.2 4.8 0.00 0.18 0.18 96 1010.9
20220930105026 11 85 4.8 9.7 0.03 0.18 0.18 96 1011.0
20220930104505 11 85 4.8 9.7 0.03 0.18 0.18 95 1011.0
20220930104005 11 80 4.8 8.0 0.03 0.18 0.18 96 1010.9
20220930103526 10 74 4.8 8.0 0.03 0.18 0.18 96 1010.8
20220930103005 10 69 4.8 11.3 0.03 0.18 0.18 96 1010.7
20220930102505 10 72 6.4 11.3 0.03 0.18 0.18 96 1010.7
20220930102026 10 70 4.8 9.7 0.05 0.18 0.18 96 1010.7
20220930101505 10 72 3.2 9.7 0.05 0.18 0.18 96 1010.7
20220930101005 10 80 3.2 9.7 0.05 0.18 0.18 96 1010.6
20220930100505 10 78 3.2 9.7 0.05 0.18 0.18 96 1010.6
20220930100005 10 76 4.8 9.7 0.05 0.18 0.18 96 1010.6
20220930095505 10 66 4.8 9.7 0.05 0.18 0.18 96 1010.6
20220930095005 10 57 4.8 9.7 0.05 0.15 0.15 96 1010.5
20220930094526 10 62 4.8 9.7 0.05 0.15 0.15 96 1010.4
20220930094047 10 60 4.8 8.0 0.05 0.15 0.15 96 1010.5
20220930093506 10 63 4.8 11.3 0.05 0.15 0.15 96 1010.5
20220930093004 10 64 4.8 11.3 0.05 0.15 0.15 96 1010.5
20220930092504 10 64 4.8 8.0 0.05 0.15 0.15 96 1010.4
20220930092026 10 71 3.2 8.0 0.05 0.15 0.15 96 1010.4
20220930091525 10 56 3.2 8.0 0.05 0.15 0.15 96 1010.4
20220930091005 10 62 3.2 8.0 0.05 0.15 0.15 96 1010.4
20220930090529 10 73 3.2 6.4 0.05 0.15 0.15 96 1010.5
20220930090005 10 72 3.2 8.0 0.05 0.15 0.15 96 1010.4
20220930085505 10 76 3.2 6.4 0.03 0.13 0.13 96 1010.4
20220930085026 10 69 3.2 6.4 0.03 0.13 0.13 96 1010.4
20220930084526 10 59 3.2 6.4 0.03 0.13 0.13 96 1010.3
20220930084025 10 72 4.8 11.3 0.05 0.13 0.13 96 1010.4
20220930083505 10 70 3.2 11.3 0.03 0.10 0.10 96 1010.2
20220930083025 10 39 1.6 8.0 0.03 0.10 0.10 96 1010.2
20220930082505 10 66 3.2 11.3 0.03 0.10 0.10 96 1010.2
20220930082025 10 68 6.4 11.3 0.05 0.10 0.10 96 1010.0
20220930081526 10 67 6.4 11.3 0.05 0.10 0.10 96 1009.9
20220930081026 10 71 4.8 11.3 0.05 0.10 0.10 96 1010.0
20220930080505 10 66 4.8 11.3 0.05 0.10 0.10 96 1010.0
20220930080005 10 69 4.8 9.7 0.05 0.10 0.10 96 1009.9
20220930075526 10 69 4.8 8.0 0.05 0.10 0.10 96 1010.0
20220930075005 10 74 4.8 8.0 0.05 0.10 0.10 96 1009.8
20220930074526 10 77 4.8 9.7 0.05 0.10 0.10 96 1009.8
20220930074006 10 70 4.8 11.3 0.05 0.08 0.08 96 1009.7
20220930073504 10 70 3.2 11.3 0.05 0.08 0.08 96 1009.9
20220930073005 10 74 1.6 6.4 0.05 0.08 0.08 96 1009.8
20220930072504 10 67 3.2 6.4 0.05 0.08 0.08 96 1009.8
20220930072005 10 52 3.2 6.4 0.05 0.05 0.05 96 1009.8
20220930071547 10 56 3.2 6.4 0.05 0.05 0.05 96 1009.8
20220930071026 10 66 3.2 6.4 0.05 0.05 0.05 96 1009.7
20220930070525 10 67 3.2 6.4 0.05 0.05 0.05 96 1009.8
20220930070005 10 66 3.2 6.4 0.05 0.05 0.05 96 1009.8
20220930065505 10 73 3.2 9.7 0.05 0.05 0.05 96 1009.8
20220930065005 10 70 4.8 9.7 0.05 0.05 0.05 96 1009.8
20220930064505 10 68 4.8 9.7 0.05 0.05 0.05 96 1009.7
20220930064025 10 75 4.8 9.7 0.03 0.03 0.03 96 1009.7
20220930063505 10 72 4.8 9.7 0.03 0.03 0.03 96 1009.5
20220930063005 10 75 4.8 11.3 0.03 0.03 0.03 96 1009.5
20220930062504 10 82 6.4 11.3 0.03 0.03 0.03 96 1009.5
20220930062025 10 84 6.4 11.3 0.00 0.00 0.00 96 1009.5
20220930061526 10 80 6.4 11.3 0.00 0.00 0.00 96 1009.4
20220930061004 10 74 4.8 11.3 0.00 0.03 0.00 96 1009.4
20220930060504 10 73 4.8 11.3 0.00 0.03 0.00 96 1009.2
20220930060005 10 75 6.4 16.1 0.00 0.03 0.00 96 1009.2
20220930055505 9 74 6.4 16.1 0.00 0.03 0.00 96 1009.1
20220930055004 9 72 6.4 11.3 0.00 0.03 0.00 96 1009.1
20220930054505 9 69 6.4 11.3 0.00 0.03 0.00 96 1009.0
20220930054026 9 68 6.4 12.9 0.00 0.03 0.00 96 1009.0
20220930053504 9 74 6.4 12.9 0.00 0.03 0.00 96 1009.0
20220930053004 9 77 6.4 11.3 0.00 0.03 0.00 96 1009.1
20220930052505 9 76 6.4 11.3 0.00 0.03 0.00 96 1009.1
20220930052005 9 75 4.8 11.3 0.00 0.03 0.00 96 1009.1
20220930051526 9 78 4.8 11.3 0.00 0.03 0.00 96 1009.1
20220930051026 9 80 4.8 11.3 0.00 0.03 0.00 96 1009.0
20220930050526 9 82 4.8 8.0 0.00 0.03 0.00 96 1009.0
20220930050004 9 85 4.8 11.3 0.00 0.03 0.00 96 1008.9
20220930045525 9 84 4.8 11.3 0.00 0.03 0.00 96 1009.0
20220930045047 8 82 3.2 9.7 0.00 0.03 0.00 96 1008.8
20220930044505 8 78 3.2 9.7 0.00 0.03 0.00 96 1008.9
20220930044025 8 78 4.8 9.7 0.00 0.03 0.00 96 1008.9
20220930043505 8 78 4.8 6.4 0.00 0.03 0.00 96 1008.8
20220930043004 8 77 4.8 8.0 0.00 0.03 0.00 96 1008.7
20220930042505 8 72 4.8 8.0 0.00 0.03 0.00 96 1008.7
20220930042004 8 68 3.2 8.0 0.00 0.03 0.00 96 1008.7
20220930041525 8 73 3.2 6.4 0.00 0.03 0.00 96 1008.7
20220930041047 8 77 3.2 8.0 0.00 0.03 0.00 96 1008.8
20220930040505 8 74 4.8 8.0 0.00 0.03 0.00 96 1008.7
20220930040025 8 73 1.6 6.4 0.00 0.03 0.00 96 1008.6
20220930035504 8 0 0.0 0.0 0.00 0.03 0.00 96 1008.7
20220930035004 8 0 0.0 0.0 0.00 0.03 0.00 96 1008.7
20220930034505 8 0 0.0 0.0 0.00 0.03 0.00 96 1008.7
20220930034004 8 0 0.0 0.0 0.00 0.03 0.00 96 1008.6
20220930033504 8 0 0.0 0.0 0.00 0.03 0.00 96 1008.6
20220930033025 8 0 0.0 0.0 0.00 0.03 0.00 96 1008.5
20220930032504 8 0 0.0 0.0 0.00 0.03 0.00 96 1008.4
20220930032004 8 0 0.0 0.0 0.00 0.03 0.00 96 1008.5
20220930031504 8 80 0.0 1.6 0.00 0.03 0.00 96 1008.4
20220930031004 8 80 1.6 3.2 0.00 0.03 0.00 96 1008.4
20220930030526 8 79 3.2 3.2 0.00 0.03 0.00 96 1008.4
20220930030004 8 78 3.2 4.8 0.00 0.03 0.00 96 1008.5
20220930025525 8 77 1.6 4.8 0.00 0.03 0.00 96 1008.3
20220930025004 8 76 0.0 4.8 0.00 0.03 0.00 96 1008.4
20220930024504 7 0 0.0 0.0 0.00 0.03 0.00 97 1008.4
20220930024005 7 0 0.0 0.0 0.00 0.03 0.00 97 1008.4
20220930023525 7 42 0.0 3.2 0.00 0.03 0.00 97 1008.4
20220930023025 7 54 1.6 4.8 0.00 0.03 0.00 96 1008.3
20220930022505 7 60 1.6 4.8 0.00 0.03 0.00 96 1008.3
20220930022046 7 66 1.6 4.8 0.00 0.03 0.00 97 1008.3
20220930021525 7 77 1.6 4.8 0.00 0.03 0.00 97 1008.2
20220930021004 7 77 1.6 4.8 0.00 0.03 0.00 97 1008.3
20220930020504 7 79 1.6 4.8 0.00 0.03 0.00 97 1008.4
20220930020005 7 0 0.0 0.0 0.00 0.03 0.00 97 1008.3
20220930015547 7 0 0.0 0.0 0.00 0.03 0.00 97 1008.3
20220930015004 7 0 0.0 0.0 0.00 0.03 0.00 97 1008.3
20220930014504 7 0 0.0 0.0 0.00 0.03 0.00 97 1008.4
20220930014004 6 0 0.0 0.0 0.00 0.03 0.00 97 1008.3
20220930013525 6 0 0.0 0.0 0.00 0.03 0.00 97 1008.3
20220930013004 6 0 0.0 0.0 0.00 0.03 0.00 97 1008.2
20220930012504 6 0 0.0 0.0 0.00 0.03 0.00 97 1008.2
20220930012004 6 0 0.0 0.0 0.00 0.03 0.00 96 1008.3
20220930011504 6 0 0.0 0.0 0.00 0.03 0.00 97 1008.2
20220930011004 6 0 0.0 0.0 0.00 0.03 0.00 97 1008.2
20220930010525 6 0 0.0 0.0 0.00 0.03 0.00 97 1008.3
20220930010004 6 0 0.0 0.0 0.00 0.05 0.00 97 1008.2
20220930005504 6 0 0.0 0.0 0.00 0.05 0.00 97 1008.3
20220930005004 6 0 0.0 0.0 0.00 0.05 0.00 97 1008.2
20220930004504 6 0 0.0 0.0 0.00 0.05 0.00 96 1008.1
20220930004026 6 0 0.0 0.0 0.00 0.05 0.00 96 1008.2
20220930003504 6 0 0.0 0.0 0.00 0.05 0.00 96 1008.1
20220930003004 6 0 0.0 0.0 0.00 0.05 0.00 96 1008.0
20220930002504 6 0 0.0 0.0 0.00 0.05 0.00 96 1008.0
20220930002004 6 0 0.0 0.0 0.00 0.05 0.00 96 1008.0
20220930001504 6 0 0.0 0.0 0.00 0.05 0.00 96 1008.1
20220930001004 6 0 0.0 0.0 0.00 0.05 0.00 96 1008.2
20220930000504 6 0 0.0 0.0 0.00 0.05 0.00 96 1008.1
20220930000004 6 0 0.0 0.0 0.00 0.05 0.00 96 1008.1
20220929235504 6 0 0.0 0.0 0.00 0.05 0.00 96 1008.1
20220929235025 6 0 0.0 0.0 0.00 0.05 0.00 96 1008.1
20220929234504 6 0 0.0 0.0 0.00 0.05 0.00 96 1008.1
20220929234026 6 0 0.0 0.0 0.00 0.05 0.00 96 1008.1
20220929233504 6 0 0.0 0.0 0.00 0.05 0.00 96 1008.2
20220929233004 6 246 0.0 1.6 0.00 0.05 0.00 96 1008.2
20220929232546 6 246 0.0 3.2 0.00 0.05 0.00 96 1008.3
20220929232005 6 246 0.0 3.2 0.00 0.05 0.00 96 1008.3
20220929231504 6 246 0.0 1.6 0.00 0.05 0.00 96 1008.2
20220929231025 6 210 1.6 3.2 0.00 0.05 0.00 96 1008.1
20220929230504 5 154 1.6 3.2 0.00 0.05 0.00 96 1008.2
20220929230026 5 107 1.6 3.2 0.00 0.05 0.00 95 1008.1
20220929225504 6 50 1.6 4.8 0.00 0.05 0.00 96 1008.1
20220929225025 6 52 1.6 6.4 0.00 0.05 0.00 97 1008.0
20220929224525 6 44 1.6 6.4 0.00 0.05 0.00 96 1008.0
20220929224004 6 12 0.0 4.8 0.00 0.05 0.00 96 1008.1
20220929223505 6 0 0.0 0.0 0.00 0.05 0.00 96 1008.1
20220929223004 6 0 0.0 0.0 0.00 0.05 0.00 96 1008.1
20220929222504 6 0 0.0 0.0 0.00 0.05 0.00 96 1008.1
20220929222004 6 0 0.0 0.0 0.00 0.05 0.00 96 1008.2
20220929221504 6 0 0.0 0.0 0.00 0.05 0.00 96 1008.1
20220929221005 6 0 0.0 0.0 0.00 0.05 0.00 95 1008.1
20220929220504 6 0 0.0 0.0 0.00 0.05 0.00 95 1008.0
20220929220049 6 0 0.0 0.0 0.00 0.08 0.00 95 1008.1
20220929215546 6 0 0.0 0.0 0.00 0.08 0.08 96 1008.2
20220929215025 6 0 0.0 0.0 0.00 0.08 0.08 96 1008.2
20220929214525 7 0 0.0 0.0 0.00 0.08 0.08 96 1008.2
20220929214004 6 0 0.0 0.0 0.00 0.08 0.08 96 1008.2
20220929213505 6 0 0.0 0.0 0.00 0.08 0.08 96 1008.2
20220929213005 6 0 0.0 0.0 0.00 0.08 0.08 96 1008.2
20220929212504 6 0 0.0 0.0 0.00 0.08 0.08 96 1008.2
20220929212004 6 0 0.0 0.0 0.00 0.08 0.08 95 1008.1
20220929211503 7 0 0.0 0.0 0.00 0.08 0.08 95 1008.2
20220929211004 7 0 0.0 0.0 0.00 0.08 0.08 96 1008.2
20220929210504 7 0 0.0 0.0 0.00 0.08 0.08 96 1008.0
20220929210025 7 0 0.0 0.0 0.00 0.08 0.08 96 1008.0
20220929205504 7 0 0.0 0.0 0.00 0.08 0.08 96 1007.9
20220929205004 6 0 0.0 0.0 0.00 0.08 0.08 95 1007.6
20220929204504 6 11 0.0 1.6 0.00 0.08 0.08 95 1007.5
20220929204004 6 9 1.6 3.2 0.00 0.08 0.08 95 1007.6
20220929203504 6 8 1.6 3.2 0.00 0.08 0.08 95 1007.5
20220929203004 7 5 0.0 3.2 0.00 0.08 0.08 95 1007.4
20220929202525 7 22 1.6 4.8 0.00 0.08 0.08 95 1007.4
20220929202004 7 48 1.6 4.8 0.00 0.08 0.08 95 1007.2
20220929201525 7 68 0.0 3.2 0.00 0.08 0.08 95 1007.1
20220929201004 7 80 0.0 1.6 0.00 0.08 0.08 95 1007.1
20220929200504 7 0 0.0 0.0 0.00 0.08 0.08 95 1007.0
20220929200004 7 0 0.0 0.0 0.00 0.08 0.08 95 1006.9
20220929195525 7 0 0.0 0.0 0.00 0.08 0.08 95 1006.9
20220929195046 7 0 0.0 0.0 0.00 0.08 0.08 95 1007.0
20220929194504 7 0 0.0 0.0 0.00 0.08 0.08 94 1007.1
20220929194004 7 80 0.0 1.6 0.00 0.08 0.08 94 1007.1
20220929193504 7 80 0.0 1.6 0.00 0.08 0.08 94 1007.0
20220929193004 7 80 0.0 1.6 0.00 0.08 0.08 94 1007.0
20220929192525 7 80 0.0 1.6 0.00 0.08 0.08 94 1006.8
20220929192004 7 80 0.0 3.2 0.00 0.08 0.08 94 1007.0
20220929191504 7 81 1.6 4.8 0.00 0.08 0.08 94 1006.8
20220929191004 8 81 3.2 6.4 0.00 0.08 0.08 94 1006.8
20220929190504 8 88 3.2 6.4 0.00 0.08 0.08 94 1006.8
20220929190004 7 94 3.2 6.4 0.00 0.08 0.08 93 1006.6
20220929185504 7 89 4.8 6.4 0.00 0.08 0.08 93 1006.7
20220929185004 8 88 4.8 9.7 0.00 0.08 0.08 93 1006.6
20220929184525 8 89 4.8 9.7 0.00 0.08 0.08 93 1006.6
20220929184003 8 83 4.8 6.4 0.00 0.08 0.08 93 1006.6
20220929183525 8 86 4.8 9.7 0.00 0.08 0.08 93 1006.5
20220929183025 8 94 4.8 9.7 0.00 0.08 0.08 93 1006.6
20220929182504 8 89 4.8 9.7 0.00 0.08 0.08 92 1006.5
20220929182004 8 81 4.8 8.0 0.00 0.08 0.08 93 1006.5
20220929181525 8 84 4.8 11.3 0.00 0.08 0.08 93 1006.5
20220929181004 8 96 4.8 11.3 0.00 0.08 0.08 93 1006.5
20220929180524 8 105 3.2 9.7 0.00 0.08 0.08 93 1006.6
20220929180004 8 104 4.8 6.4 0.00 0.08 0.08 93 1006.7
20220929175503 8 113 3.2 6.4 0.00 0.08 0.08 93 1006.6
20220929175025 8 123 3.2 6.4 0.00 0.08 0.08 93 1006.6
20220929174503 8 112 3.2 6.4 0.00 0.08 0.08 92 1006.5
20220929174004 8 103 1.6 4.8 0.00 0.08 0.08 92 1006.5
20220929173504 8 97 3.2 6.4 0.00 0.08 0.08 92 1006.4
20220929173025 8 95 4.8 6.4 0.00 0.08 0.08 92 1006.5
20220929172525 8 101 3.2 6.4 0.00 0.08 0.08 92 1006.2
20220929172003 8 116 1.6 4.8 0.00 0.08 0.08 92 1006.3
20220929171504 8 119 1.6 4.8 0.00 0.08 0.08 92 1006.3
20220929171025 8 120 1.6 4.8 0.00 0.08 0.08 92 1006.2
20220929170525 8 123 0.0 1.6 0.00 0.08 0.08 92 1006.1
20220929170004 8 123 0.0 1.6 0.00 0.08 0.08 92 1006.0
20220929165546 8 123 1.6 3.2 0.00 0.08 0.08 92 1006.0
20220929165003 8 105 1.6 3.2 0.00 0.08 0.08 90 1005.8
20220929164504 9 93 1.6 3.2 0.00 0.08 0.08 89 1005.6
20220929164004 10 93 0.0 3.2 0.00 0.08 0.08 88 1005.6
20220929163504 10 93 0.0 1.6 0.00 0.08 0.08 88 1005.6
20220929163025 10 100 1.6 6.4 0.00 0.08 0.08 88 1005.5
20220929162504 10 99 3.2 6.4 0.00 0.08 0.08 88 1005.5
20220929162004 10 91 4.8 6.4 0.00 0.10 0.08 88 1005.4
20220929161503 10 87 4.8 6.4 0.00 0.10 0.08 86 1005.2
20220929161025 10 89 4.8 6.4 0.00 0.10 0.08 86 1005.2
20220929160504 10 89 4.8 6.4 0.00 0.10 0.08 85 1005.2
20220929160003 11 85 4.8 6.4 0.00 0.10 0.08 83 1005.2
20220929155503 11 88 4.8 6.4 0.00 0.13 0.08 84 1005.2
20220929155004 11 98 3.2 6.4 0.00 0.18 0.08 84 1005.0
20220929154504 11 102 3.2 6.4 0.00 0.20 0.08 84 1005.2
20220929154004 11 101 4.8 6.4 0.00 0.20 0.08 83 1005.0
20220929153546 11 97 4.8 6.4 0.00 0.20 0.08 83 1005.1
20220929153004 11 92 4.8 6.4 0.00 0.20 0.08 83 1005.0
20220929152503 11 96 4.8 6.4 0.00 0.20 0.08 83 1005.1
20220929152003 12 99 6.4 9.7 0.00 0.20 0.08 82 1004.9
20220929151503 12 95 6.4 11.3 0.00 0.20 0.08 81 1004.9